SCP
0 0 0 0 0 0 0 0 0 0 0 0 0 0 0 0 0 0 0 0 0 0 0 0 0 0 0 0 0 0 0 0 0 0 0 0 0 0 0 0 0 0 0
0 0 0 0 0 0 0 0 0 0 0 0 0 0 0 0 0 0 0 0 0 0 0 0 0 0 0 0 0 0 0 0 0 0 0 0 0 0 0 0 0 0 0
0 0 0 0 0 0 0 0 0 0 0 0 0 0 0 0 0 0 0 0 0 0 0 0 0 0 0 0 0 0 0 0 0 0 0 0 0 0 0 0 0 0 0
0 0 0 0 0 0 0 0 0 0 0 0 0 0 0 0 0 0 0 0 0 0 0 0 0 0 0 0 0 0 0 0 0 0 0 0 0 0 0 0 0 0 0
0 0 0 0 0 0 0 0 0 0 0 0 0 0 0 0 0 0 0 0 0 0 0 0 0 0 0 0 0 0 0 0 0 0 0 0 0 0 0 0 0 0 0
0 0 0 1 1 0 0 0 0 0 0 0 0 0 0 0 0 0 0 0 0 0 0 0 0 0 0 0 0 0 0 0 0 0 0 0 0 0 0 0 0 0 0
0 0 0 1 1 0 0 0 0 0 0 0 0 0 0 0 0 0 0 0 0 0 0 0 0 0 0 0 0 0 0 0 0 0 0 0 0 0 0 0 0 0 0
0 0 0 1 1 1 0 0 0 0 0 0 0 0 0 0 0 0 0 0 0 0 0 0 0 0 0 0 0 0 0 0 0 0 0 0 0 0 0 0 0 0 0
0 0 0 1 1 0 0 0 0 0 0 0 0 0 0 0 0 0 0 0 0 0 0 0 0 0 0 0 0 0 0 0 0 0 0 0 0 0 0 0 0 0 0
0 0 0 1 0 0 0 0 0 0 0 0 0 0 0 0 0 0 0 0 0 0 0 0 0 0 0 0 0 0 0 0 0 0 0 0 0 0 0 0 0 0 0
0 0 0 1 0 0 0 0 0 0 0 0 0 0 0 0 0 0 0 0 0 0 0 0 0 0 0 0 0 0 0 0 0 0 0 0 0 0 0 0 0 0 0
0 0 0 1 0 0 0 0 0 0 0 0 0 0 0 0 0 0 0 0 0 0 0 0 0 0 0 0 0 0 0 0 0 0 0 0 0 0 0 0 0 0 0
0 0 0 0 0 0 0 0 0 0 0 0 0 0 0 0 0 0 0 0 0 0 0 0 0 0 0 0 0 0 0 0 0 0 0 0 0 0 0 0 0 0 0
0 0 0 0 0 0 0 0 0 0 0 0 0 0 0 0 0 0 0 0 0 0 0 0 0 0 0 0 0 0 0 0 0 0 0 0 0 0 0 0 0 0 0
0 0 0 0 0 0 0 0 0 0 0 0 0 0 0 0 0 0 0 0 0 0 0 0 0 0 0 0 0 0 0 0 0 0 0 0 0 0 0 0 0 0 0
0 0 0 0 0 0 0 0 0 0 0 0 0 0 0 0 0 0 0 0 0 0 0 0 0 0 0 0 0 0 0 0 0 0 0 0 0 0 0 0 0 0 0
0 0 0 0 0 0 0 0 0 0 0 0 0 0 0 0 0 0 0 0 0 0 0 0 0 0 0 0 0 0 0 0 0 0 0 0 0 0 0 0 0 0 0
0 0 0 0 0 0 0 0 0 0 0 0 0 0 0 0 0 0 0 0 0 0 0 0 0 0 0 0 0 0 0 0 0 0 0 0 0 0 0 0 0 0 0
0 0 0 0 0 0 0 0 0 0 0 0 0 0 0 0 0 0 0 0 0 0 0 0 0 0 0 0 0 0 0 0 0 0 0 0 0 0 0 0 0 0 0
0 0 0 0 0 0 0 0 0 0 0 0 0 0 0 0 0 0 0 0 0 0 0 0 0 0 0 0 0 0 0 0 0 0 0 0 0 0 0 0 0 0 0
0 0 0 0 0 0 0 0 0 0 0 0 0 0 0 0 0 0 0 0 0 0 0 0 0 0 0 0 0 0 0 0 0 0 0 0 0 0 0 0 0 0 0
-0 0 0 0 0 0 0 0 0 0 0 0 0 0 0 0 0 0 0 0 0 0 0 0 0 0 0 0 0 0 0 0 0 0 0 0 0 0 0 0 0 0 0
0 0 0 0 0 0 0 0 0 0 0 0 0 0 0 0 0 0 0 0 0 0 0 0 0 0 0 0 0 0 0 0 0 0 0 0 0 0 0 0 0 0 0
0 0 0 0 0 0 0 0 0 0 0 0 0 0 0 0 0 0 0 0 0 0 0 0 0 0 0 0 0 0 0 0 0 0 0 0 0 0 0 0 0 0 0
0 0 0 0 0 0 0 0 0 0 0 0 0 0 0 0 0 0 0 0 0 0 0 0 0 0 0 0 0 0 0 0 0 0 0 0 0 0 0 0 0 0 0
0 0 0 0 0 0 0 0 0 0 0 0 0 0 0 0 0 0 0 0 0 0 0 0 0 0 0 0 0 0 0 0 0 0 0 0 0 0 0 0 0 0 0
Wind_Speed
3 5 8 9 11 11 11 11 11 11 11 11 12 12 12 13 13 12 12 12 12 12 12 13 13 13 14 14 14 14 14 14 14 14 14 14 14 14 14 14 12 8 14
6 6 9 10 11 11 11 11 11 11 11 11 11 12 12 12 12 12 12 12 12 12 12 12 13 13 13 13 14 13 13 13 14 13 13 12 13 13 13 12 12 8 13
8 7 8 10 11 11 11 11 11 11 11 11 11 11 11 11 11 11 11 11 11 12 12 12 12 12 12 12 12 12 12 12 12 12 10 5 7 12 12 12 12 13 13
8 6 7 10 10 11 11 11 11 11 11 11 10 10 10 11 11 11 11 11 11 11 11 11 11 11 11 11 11 11 11 12 11 10 5 4 5 11 12 12 12 12 12
7 5 7 10 10 11 11 11 10 11 11 11 10 10 10 10 10 10 10 10 10 10 10 10 10 10 10 10 10 10 11 11 11 8 4 4 4 10 11 11 11 11 11
6 5 7 10 10 11 11 10 10 10 10 10 10 10 10 10 10 10 10 9 9 9 10 9 9 9 9 9 10 10 11 11 8 5 4 3 3 9 10 10 10 11 11
7 5 7 9 10 11 10 10 10 9 10 10 9 9 10 10 10 10 9 8 8 9 9 9 8 8 8 9 9 10 10 9 6 4 3 3 4 9 9 9 10 10 10
8 6 6 9 10 10 10 9 9 9 9 9 9 9 9 9 9 9 8 8 8 8 8 8 7 7 7 8 8 8 9 7 6 4 3 2 6 8 9 9 9 9 9
6 6 5 5 6 8 8 9 9 8 8 8 8 8 8 8 9 8 8 7 7 7 7 7 7 7 7 7 7 7 8 7 4 2 3 2 6 8 9 9 9 9 9
5 5 5 4 5 4 5 7 7 8 8 7 7 7 7 7 7 7 6 6 6 7 7 6 6 6 6 6 6 7 7 6 3 3 1 2 6 7 8 8 8 8 8
4 3 3 4 4 4 4 5 5 6 6 6 5 6 6 3 3 4 4 5 5 6 6 6 5 5 5 4 5 5 4 2 2 1 1 4 6 7 7 7 7 7 7
3 3 3 3 4 4 3 3 2 3 3 3 3 3 3 3 2 3 3 4 4 4 4 4 4 4 3 2 2 3 2 2 2 1 1 4 6 6 6 6 6 5 5
2 2 2 2 3 4 3 3 2 1 2 2 3 3 2 2 2 2 1 1 2 2 2 2 2 1 1 1 1 1 1 1 1 0 1 4 5 5 5 5 5 5 5
2 1 2 2 2 3 3 3 2 2 2 2 2 3 2 2 2 1 1 1 1 1 1 1 1 1 1 1 1 1 1 1 1 1 1 4 5 5 5 5 5 5 4
2 1 1 3 3 2 3 3 3 2 2 2 2 2 3 3 3 2 1 1 1 1 1 1 1 1 1 1 1 1 1 2 1 1 1 3 4 5 5 5 5 4 4
2 2 1 2 3 2 2 2 2 2 2 2 2 2 2 2 3 3 2 2 1 1 1 1 1 1 1 1 1 2 2 2 2 2 2 2 4 4 5 5 5 5 4
2 2 1 2 2 2 2 2 2 2 2 2 2 2 3 2 3 2 2 2 2 2 2 1 1 0 0 0 1 2 2 2 2 3 2 2 2 3 4 5 5 5 5
1 1 1 1 3 2 2 1 1 2 2 2 2 2 3 3 3 3 2 1 1 1 1 1 1 1 1 1 1 2 2 2 3 3 2 3 2 2 3 4 5 5 6
2 2 2 1 3 2 2 2 1 1 2 2 1 2 2 3 3 3 2 1 2 1 1 1 1 1 1 1 1 2 2 2 3 3 3 3 3 3 2 3 5 5 5
2 2 2 1 2 2 1 1 1 1 1 1 1 1 1 2 2 2 2 2 2 2 1 1 1 1 1 1 1 1 2 2 2 3 3 3 3 4 3 3 3 3 5
2 1 1 1 2 2 1 1 1 1 0 0 0 0 1 1 2 2 2 2 2 2 2 2 1 1 0 0 0 1 2 2 2 2 2 2 3 4 4 4 3 2 2
2 2 2 2 2 2 1 1 2 1 1 1 0 0 0 1 1 2 2 2 2 2 1 1 1 1 0 0 1 0 1 2 2 2 2 3 3 3 3 4 4 4 3
3 3 2 2 2 1 1 1 1 2 1 1 1 0 1 0 1 1 2 2 2 2 2 2 2 2 2 1 1 2 2 3 2 2 3 3 3 3 3 3 4 4 4
3 3 2 2 2 2 2 2 2 1 1 1 1 1 1 0 1 1 1 2 2 2 2 2 2 1 2 2 1 1 1 1 1 2 2 2 2 3 4 3 4 4 4
3 3 3 2 2 2 2 3 2 1 1 1 0 0 1 1 1 1 1 1 2 2 2 2 1 1 2 2 2 1 1 1 2 2 3 3 2 2 3 3 3 3 3
1 2 3 3 2 2 2 2 2 2 1 0 1 1 1 1 1 1 1 1 2 2 3 3 3 3 2 2 2 2 2 2 2 2 3 3 3 3 2 2 2 3 3
Wind_Direction
163 166 142 132 127 121 117 114 110 105 101 99 98 96 94 93 94 95 95 94 92 90 90 91 91 90 90 88 89 88 87 85 85 83 84 83 84 85 83 80 78 74 79
155 154 140 134 129 124 118 114 110 108 105 102 100 100 99 97 96 96 95 94 91 89 89 90 91 92 92 91 89 88 88 87 86 84 81 81 83 86 87 86 85 84 81
142 147 142 134 130 126 120 115 112 110 108 104 102 102 101 99 98 98 96 95 93 92 91 91 92 92 92 91 90 89 88 90 90 87 79 69 83 88 88 87 86 85 84
139 143 142 135 131 128 123 119 115 114 111 109 106 104 103 101 99 98 96 95 95 95 94 94 94 95 94 92 90 89 87 87 90 88 75 65 79 91 89 88 86 86 86
128 133 139 133 132 130 126 123 120 117 116 113 110 106 104 103 102 99 95 94 95 97 97 96 97 97 95 93 90 89 89 87 86 83 75 67 72 93 91 89 87 86 87
126 129 139 133 133 131 128 125 122 120 119 117 112 108 106 105 104 101 98 98 99 100 99 97 99 100 97 93 93 92 90 86 81 78 74 72 80 97 95 92 89 88 87
131 132 141 134 132 132 130 129 126 124 122 121 116 112 109 108 107 104 101 102 104 106 105 102 101 102 100 95 94 92 90 88 80 77 78 80 97 102 99 95 93 91 89
136 137 142 137 133 132 130 128 127 124 122 121 119 116 113 112 111 110 107 105 107 109 107 105 103 102 102 98 94 92 90 88 86 83 85 90 103 102 98 97 95 92 91
127 132 132 137 136 135 132 129 126 122 118 117 117 115 111 109 112 113 109 107 108 111 111 109 107 105 102 97 94 92 87 83 90 86 94 95 106 105 102 98 94 92 91
105 118 126 128 128 130 135 127 124 119 115 114 108 106 107 109 112 112 112 109 110 115 116 112 109 106 100 94 92 90 86 82 89 89 95 118 114 111 105 100 96 93 90
96 101 116 124 125 126 130 127 125 121 116 113 109 106 105 108 110 113 111 110 111 117 118 114 110 103 93 83 83 81 80 88 104 97 112 123 126 118 111 107 104 100 96
117 118 113 126 130 126 132 125 128 126 125 118 120 119 108 109 106 107 108 109 107 111 113 111 106 101 88 76 70 68 75 99 106 123 139 137 138 131 124 119 115 112 108
151 122 122 134 137 134 130 130 123 124 126 127 132 128 120 113 106 99 109 107 105 99 94 91 87 81 95 103 94 100 108 108 124 160 159 150 152 150 141 139 133 126 125
139 129 124 117 129 136 136 138 134 135 137 141 150 147 139 133 124 135 138 139 129 116 111 105 108 114 115 135 147 140 144 136 157 170 185 165 170 168 158 151 147 143 139
149 153 146 126 120 136 132 145 142 151 154 153 156 163 155 154 156 155 158 154 150 138 142 146 166 165 154 169 170 164 172 178 177 180 189 178 178 179 176 167 164 165 159
159 160 147 134 130 138 138 146 153 160 160 153 155 159 155 155 156 159 160 162 171 174 177 173 186 193 209 200 202 208 198 192 188 190 196 195 195 194 190 184 183 185 181
180 158 141 148 123 138 148 156 154 167 165 166 169 166 160 150 147 152 153 169 189 183 172 162 156 147 219 240 225 226 211 204 202 202 203 194 200 206 201 199 201 203 202
164 162 148 137 126 137 152 165 158 171 170 173 171 169 164 153 147 150 145 169 179 162 166 168 164 177 216 228 239 239 223 210 210 209 203 198 189 192 206 212 216 219 219
169 175 147 116 133 136 149 153 147 151 158 165 161 168 172 163 158 159 154 167 156 146 162 195 187 190 203 229 243 239 228 217 215 205 201 203 197 193 195 211 217 225 224
163 175 158 122 134 137 138 127 112 87 102 120 140 162 159 166 161 153 148 155 153 157 167 176 199 219 200 215 253 264 251 239 218 203 201 199 201 201 201 208 213 225 226
142 157 173 147 150 134 130 149 146 164 174 104 107 123 153 151 154 148 149 154 160 173 183 176 168 177 241 102 54 324 313 280 241 221 206 195 202 204 195 205 206 207 225
164 171 181 179 156 148 146 158 162 166 179 171 140 41 75 136 166 162 155 167 178 174 165 172 150 154 205 129 128 83 306 314 293 252 221 209 216 210 208 211 206 208 206
175 182 184 185 154 136 111 100 84 76 43 31 26 4 320 260 199 181 176 170 178 176 188 194 183 169 196 218 166 154 180 234 289 278 239 228 221 224 226 217 212 211 210
196 183 185 170 151 132 121 112 117 123 184 238 233 241 280 295 272 220 190 178 180 183 195 207 198 204 182 209 235 230 210 192 212 285 300 272 250 238 233 233 222 220 216
191 182 173 148 135 131 126 133 142 161 223 261 213 230 280 286 277 259 211 196 197 201 205 215 220 219 204 209 203 206 220 257 227 220 269 287 294 271 252 241 229 221 221
188 168 153 143 133 132 131 138 147 165 192 278 279 242 272 293 306 292 255 228 227 224 217 218 214 218 226 226 223 209 202 208 216 215 244 261 265 282 290 272 243 233 232